This demonstration page uses our WeatherBlox Daily Observations layout. Learn more.

Left ArrowRight Arrow

38.20091, -84.87328

Hourly Observations for July 10, 2021

Temp ( °F °C ) Dew Point ( °F °C ) Humidity (%) Winds ( mph kmh ) Pressure ( in mb ) Visibility ( mi km ) Precip ( " mm )
12:53 am 00:53 Clear 68 20 63 17.2 84 84 E 7 11 30.05 1018 10 16 0.00 0.00
1:53 am 01:53 Clear 67 19.4 62 16.7 84 84 SSE 5 7 30.05 1018 10 16 0.00 0.00
2:53 am 02:53 Clear 67 19.4 62 16.7 84 84 Calm 30.04 1017 10 16 0.00 0.00
3:53 am 03:53 Clear 65 18.3 62 16.7 90 90 Calm 30.02 1017 10 16 0.00 0.00
4:53 am 04:53 Mostly Cloudy 67 19.4 62 16.7 84 84 SSE 7 11 30.01 1016 10 16 0.00 0.00
5:53 am 05:53 Clear 66 18.9 62 16.7 87 87 SSE 5 7 30.00 1016 10 16 0.00 0.00
6:53 am 06:53 Mostly Cloudy 66 18.9 63 17.2 90 90 E 3 6 30.00 1016 10 16 0.00 0.00
7:53 am 07:53 Cloudy 69 20.6 65 18.3 87 87 SE 3 6 30.00 1016 10 16 0.00 0.00
8:49 am 08:49 Mostly Cloudy 72 22 64 18 78 78 SSE 9 15 30.01 1016 10 16 0.00 0.00
8:53 am 08:53 Mostly Cloudy 71 21.7 65 18.3 81 81 SSE 8 13 30.01 1016 10 16 0.00 0.00
9:49 am 09:49 Cloudy with Nearby Thunderstorms 73 23 68 20 83 83 SW 9 15 30.01 1016 10 16 0.00 0.00
9:51 am 09:51 Cloudy with Nearby Thunderstorms 73 23 68 20 83 83 SW 10 17 30.02 1017 1 1 0.00 0.00
9:53 am 09:53 Cloudy with Nearby Thunderstorms 73 22.8 68 20 84 84 SW 13 20 30.04 1017 0 0 0.00 0.00
10:02 am 10:02 Cloudy with Strong Thunderstorms 71 21.7 69 20.6 94 94 S 9 15 30.02 1016 0 0 0.15 3.81
10:12 am 10:12 Cloudy with Thunderstorms 71 21.7 69 20.6 94 94 SE 10 17 29.99 1015 N/A 0.18 4.57
10:39 am 10:39 Mostly Cloudy with Light Rain 70 21.1 68 20 93 93 SSE 8 13 29.96 1014 N/A 0.21 5.33
10:50 am 10:50 Mostly Cloudy with Light Rain 70 21 68 20 94 94 SSW 6 9 29.99 1016 0 0 0.21 5.33
10:53 am 10:53 Partly Cloudy with Fog 70 21.1 68 20 93 93 VRB 5 7 29.99 1016 0 0 0.21 5.33
11:03 am 11:03 Partly Cloudy with Fog 71 21.7 68 20 90 90 Calm 29.99 1015 1 1 0.00 0.00
11:05 am 11:05 Partly Cloudy with Mist and Fog 71 21.7 68 20 90 90 N 3 6 29.99 1015 3 5 0.00 0.00
11:53 am 11:53 Mostly Sunny 75 23.9 70 21.1 84 84 Calm 29.99 1016 10 16 0.00 0.00
12:53 pm 12:53 Hazy 78 25.6 70 21.1 76 76 S 5 7 29.98 1015 0 0 0.00 0.00
1:04 pm 13:04 Hazy 78 25.6 70 21.1 76 76 SSW 6 9 29.97 1015 2 2 0.00 0.00
1:11 pm 13:11 Sunny 78 25.6 69 20.6 74 74 SSW 7 11 29.96 1014 10 16 0.00 0.00
1:53 pm 13:53 Hazy 80 26.7 70 21.1 71 71 WNW 7 11 29.97 1015 0 0 0.00 0.00
2:02 pm 14:02 Hazy 80 26.7 70 21.1 71 71 W 7 11 29.95 1014 1 2 0.00 0.00
2:04 pm 14:04 Hazy 80 26.7 71 21.7 74 74 VRB 3 6 29.95 1014 6 10 0.00 0.00
2:53 pm 14:53 Hazy 82 27.8 70 21.1 67 67 W 5 7 29.96 1015 0 0 0.00 0.00
3:05 pm 15:05 Hazy 82 27.8 70 21.1 67 67 VRB 7 11 29.94 1014 1 2 0.00 0.00
3:07 pm 15:07 Hazy 82 27.8 70 21.1 67 67 S 5 7 29.94 1014 5 8 0.00 0.00
3:17 pm 15:17 Hazy 83 28.3 70 21.1 65 65 VRB 6 9 29.94 1014 2 2 0.00 0.00
3:25 pm 15:25 Mostly Sunny 83 28.3 70 21.1 65 65 VRB 5 7 29.94 1014 10 16 0.00 0.00
3:53 pm 15:53 Mostly Cloudy with Haze 83 28.3 70 21.1 65 65 WSW 7 11 29.94 1014 1 1 0.00 0.00
4:03 pm 16:03 Hazy 84 28.9 70 21.1 63 63 W 8 13 29.92 1013 2 3 0.00 0.00
4:10 pm 16:10 Partly Cloudy 83 28.3 68 20 61 61 W 7 11 29.91 1013 10 16 0.00 0.00
4:50 pm 16:50 Hazy 84 29 70 21 62 62 Calm 29.88 1012 0 0 0.00 0.00
4:53 pm 16:53 Hazy 85 29.4 69 20.6 59 59 VRB 3 6 29.90 1013 0 0 0.00 0.00
5:01 pm 17:01 Hazy 85 29.4 69 20.6 59 59 W 3 6 29.88 1012 N/A 0.00 0.00
5:10 pm 17:10 Hazy 84 28.9 68 20 59 59 VRB 3 6 29.89 1012 1 1 0.00 0.00
5:12 pm 17:12 Hazy 84 28.9 69 20.6 61 61 Calm 29.89 1012 4 6 0.00 0.00
5:51 pm 17:51 Hazy 82 28 70 21 66 66 WSW 5 7 29.89 1012 1 1 0.00 0.00
5:53 pm 17:53 Hazy 83 28.3 70 21.1 65 65 WSW 3 6 29.90 1013 0 0 0.00 0.00
6:07 pm 18:07 Hazy 84 28.9 69 20.6 61 61 Calm 29.88 1012 1 2 0.00 0.00
6:09 pm 18:09 Hazy 84 28.9 69 20.6 61 61 Calm 29.88 1012 5 8 0.00 0.00
6:30 pm 18:30 Mostly Cloudy with Haze 83 28.3 70 21.1 65 65 ESE 5 7 29.88 1012 N/A 0.00 0.00
6:43 pm 18:43 Mostly Cloudy with Haze 83 28.3 70 21.1 65 65 Calm 29.87 1011 1 1 0.00 0.00
6:45 pm 18:45 Mostly Cloudy with Haze 83 28.3 70 21.1 65 65 ESE 3 6 29.87 1011 3 5 0.00 0.00
6:53 pm 18:53 Cloudy with Haze 83 28.3 71 21.7 67 67 VRB 3 6 29.89 1012 0 0 0.00 0.00
7:06 pm 19:06 Mostly Cloudy with Haze 82 27.8 71 21.7 69 69 SE 6 9 29.88 1012 N/A 0.00 0.00
7:53 pm 19:53 Cloudy with Haze 82 27.8 71 21.7 69 69 S 12 19 29.92 1013 N/A 0.00 0.00
8:53 pm 20:53 Mostly Sunny 74 23.3 70 21.1 88 88 Calm 29.91 1013 N/A 0.01 0.25
9:53 pm 21:53 Mostly Cloudy with Light Rain 72 22.2 70 21.1 94 94 ESE 6 9 29.91 1013 N/A 0.01 0.25
10:53 pm 22:53 Partly Cloudy 72 22.2 70 21.1 94 94 SE 9 15 29.90 1012 N/A 0.00 0.00
11:16 pm 23:16 Mostly Cloudy with Nearby Thunderstorms 73 22.8 70 21.1 90 90 SE 10 17 29.88 1012 N/A 0.00 0.00
11:53 pm 23:53 Cloudy with Nearby Thunderstorms 73 22.8 71 21.7 94 94 SE 10 17 29.88 1012 N/A 0.17 4.32

Powered by AerisWeather